GW4707 Weather Reports


time (UTC)temp
C
wind
direction
speed
KPH
gust
KPH
rain 1hr
cm
rain 24hr
cm
rain mn
cm
humidity
%
barometer
mb
20260507222504 17 360 3.2 6.4 0.00 0.00 0.00 56 1019.9
20260507222013 17 360 1.6 4.8 0.00 0.00 0.00 56 1019.9
20260507221520 17 360 1.6 4.8 0.00 0.00 0.00 55 1019.9
20260507221010 17 360 1.6 8.0 0.00 0.00 0.00 55 1019.9
20260507220510 17 360 3.2 8.0 0.00 0.00 0.00 55 1019.9
20260507220024 17 360 3.2 8.0 0.00 0.00 0.00 55 1019.9
20260507215514 17 360 1.6 6.4 0.00 0.00 0.00 55 1019.9
20260507215010 17 360 1.6 4.8 0.00 0.00 0.00 55 1019.9
20260507214525 17 360 0.0 8.0 0.00 0.00 0.00 54 1020.0
20260507214012 17 360 3.2 8.0 0.00 0.00 0.00 54 1020.1
20260507213514 17 360 3.2 8.0 0.00 0.00 0.00 54 1020.1
20260507213013 18 360 4.8 9.7 0.00 0.00 0.00 53 1020.1
20260507212510 18 360 4.8 9.7 0.00 0.00 0.00 53 1020.1
20260507212012 18 360 4.8 8.0 0.00 0.00 0.00 53 1020.1
20260507211531 18 360 1.6 4.8 0.00 0.00 0.00 53 1020.0
20260507211007 18 360 0.0 6.4 0.00 0.00 0.00 52 1019.9
20260507210507 18 360 1.6 6.4 0.00 0.00 0.00 52 1019.9
20260507210033 18 360 1.6 6.4 0.00 0.00 0.00 52 1020.0
20260507205511 18 360 1.6 6.4 0.00 0.00 0.00 52 1019.9
20260507205008 18 360 3.2 6.4 0.00 0.00 0.00 52 1020.0
20260507204525 18 360 1.6 6.4 0.00 0.00 0.00 52 1020.0
20260507204009 18 360 3.2 8.0 0.00 0.00 0.00 51 1020.0
20260507203509 18 360 3.2 8.0 0.00 0.00 0.00 50 1019.9
20260507203033 18 360 3.2 8.0 0.00 0.00 0.00 50 1019.9
20260507202508 18 360 4.8 8.0 0.00 0.00 0.00 49 1020.0
20260507202005 19 360 4.8 8.0 0.00 0.00 0.00 48 1019.9
20260507201515 19 360 3.2 6.4 0.00 0.00 0.00 48 1020.0
20260507201007 20 360 3.2 6.4 0.00 0.00 0.00 47 1020.0
20260507200506 20 360 3.2 6.4 0.00 0.00 0.00 46 1019.9
20260507200018 20 360 1.6 4.8 0.00 0.00 0.00 45 1019.9
20260507195508 20 360 0.0 6.4 0.00 0.00 0.00 44 1020.0
20260507195008 20 360 0.0 6.4 0.00 0.00 0.00 44 1020.0
20260507194529 21 360 3.2 8.0 0.00 0.00 0.00 43 1020.0
20260507194007 21 360 4.8 9.7 0.00 0.00 0.00 42 1020.1
20260507193508 21 360 3.2 9.7 0.00 0.00 0.00 42 1020.1
20260507193032 21 360 3.2 8.0 0.00 0.00 0.00 42 1020.1
20260507192509 21 360 1.6 8.0 0.00 0.00 0.00 41 1020.0
20260507192010 21 360 4.8 12.9 0.00 0.00 0.00 41 1020.0
20260507191527 21 360 6.4 12.9 0.00 0.00 0.00 40 1020.0
20260507191009 21 360 6.4 14.5 0.00 0.00 0.00 39 1020.0
20260507190508 21 360 8.0 14.5 0.00 0.00 0.00 38 1020.0
20260507190018 21 360 6.4 14.5 0.00 0.00 0.00 38 1019.8
20260507185506 21 360 6.4 12.9 0.00 0.00 0.00 38 1019.7
20260507185008 21 360 4.8 12.9 0.00 0.00 0.00 38 1019.7
20260507184524 21 360 4.8 9.7 0.00 0.00 0.00 38 1019.8
20260507184009 21 360 0.0 4.8 0.00 0.00 0.00 39 1019.7
20260507183512 21 360 1.6 4.8 0.00 0.00 0.00 39 1019.7
20260507183040 21 360 0.0 1.6 0.00 0.00 0.00 37 1019.6
20260507182509 21 360 0.0 4.8 0.00 0.00 0.00 38 1019.6
20260507182010 21 360 0.0 6.4 0.00 0.00 0.00 38 1019.6
20260507181530 21 360 0.0 6.4 0.00 0.00 0.00 38 1019.5
20260507181013 21 360 1.6 6.4 0.00 0.00 0.00 37 1019.4
20260507180510 21 360 1.6 6.4 0.00 0.00 0.00 37 1019.4
20260507180033 22 360 1.6 4.8 0.00 0.00 0.00 42 1019.3
20260507175516 22 360 1.6 4.8 0.00 0.00 0.00 44 1019.1
20260507175006 22 360 0.0 4.8 0.00 0.00 0.00 40 1019.0
20260507174522 22 360 0.0 3.2 0.00 0.00 0.00 37 1019.0
20260507174008 22 360 0.0 3.2 0.00 0.00 0.00 34 1018.9
20260507173507 22 360 0.0 3.2 0.00 0.00 0.00 33 1019.0
20260507173024 22 360 0.0 4.8 0.00 0.00 0.00 33 1019.0
20260507172510 22 360 0.0 4.8 0.00 0.00 0.00 32 1018.9
20260507172010 22 360 1.6 6.4 0.00 0.00 0.00 32 1018.9
20260507171528 22 360 1.6 8.0 0.00 0.00 0.00 32 1019.0
20260507171007 22 360 3.2 8.0 0.00 0.00 0.00 31 1019.0
20260507170504 22 360 3.2 9.7 0.00 0.00 0.00 31 1019.0
20260507170017 23 360 4.8 9.7 0.00 0.00 0.00 30 1019.1
20260507165504 23 360 3.2 14.5 0.00 0.00 0.00 30 1019.1
20260507165010 23 360 4.8 14.5 0.00 0.00 0.00 29 1019.1
20260507164520 23 360 6.4 14.5 0.00 0.00 0.00 29 1019.1
20260507164007 23 360 4.8 14.5 0.00 0.00 0.00 29 1019.1
20260507163506 23 360 8.0 19.3 0.00 0.00 0.00 29 1019.1
20260507163021 23 360 8.0 19.3 0.00 0.00 0.00 29 1019.1
20260507162506 23 360 11.3 16.1 0.00 0.00 0.00 29 1019.1
20260507162010 23 360 8.0 17.7 0.00 0.00 0.00 29 1019.1
20260507161531 23 360 8.0 17.7 0.00 0.00 0.00 28 1019.0
20260507161006 23 360 6.4 17.7 0.00 0.00 0.00 29 1018.9
20260507160506 23 360 9.7 17.7 0.00 0.00 0.00 29 1018.9
20260507160037 23 360 9.7 17.7 0.00 0.00 0.00 29 1018.9
20260507155508 23 360 9.7 17.7 0.00 0.00 0.00 29 1019.0
20260507155004 23 360 4.8 17.7 0.00 0.00 0.00 31 1019.0
20260507154516 24 360 4.8 17.7 0.00 0.00 0.00 31 1018.9
20260507154010 24 360 4.8 14.5 0.00 0.00 0.00 31 1018.9
20260507153507 24 360 6.4 14.5 0.00 0.00 0.00 31 1019.0
20260507153022 24 360 4.8 14.5 0.00 0.00 0.00 30 1018.9
20260507152508 24 360 6.4 17.7 0.00 0.00 0.00 30 1019.0
20260507152007 25 360 6.4 17.7 0.00 0.00 0.00 29 1019.1
20260507151524 25 360 4.8 16.1 0.00 0.00 0.00 29 1019.1
20260507151008 25 360 4.8 17.7 0.00 0.00 0.00 29 1019.1
20260507150507 25 190 8.0 17.7 0.00 0.00 0.00 29 1019.2
20260507150027 25 213 9.7 19.3 0.00 0.00 0.00 29 1019.2
20260507145510 25 217 8.0 20.9 0.00 0.00 0.00 29 1019.2
20260507145007 25 148 11.3 20.9 0.00 0.00 0.00 29 1019.3
20260507144529 25 182 9.7 20.9 0.00 0.00 0.00 30 1019.3
20260507144012 25 207 6.4 17.7 0.00 0.00 0.00 31 1019.4
20260507143508 25 184 6.4 19.3 0.00 0.00 0.00 31 1019.3
20260507143020 25 193 9.7 19.3 0.00 0.00 0.00 31 1019.3
20260507142506 25 131 9.7 19.3 0.00 0.00 0.00 32 1019.3
20260507142007 25 179 6.4 19.3 0.00 0.00 0.00 33 1019.3
20260507141524 24 360 9.7 19.3 0.00 0.00 0.00 34 1019.3
20260507141004 24 164 8.0 22.5 0.00 0.00 0.00 34 1019.3
20260507140504 24 182 9.7 22.5 0.00 0.00 0.00 35 1019.3
20260507140009 24 211 6.4 22.5 0.00 0.00 0.00 36 1019.3
20260507135503 24 194 9.7 22.5 0.00 0.00 0.00 36 1019.3
20260507135004 24 360 9.7 25.7 0.00 0.00 0.00 35 1019.3
20260507134510 24 360 11.3 25.7 0.00 0.00 0.00 35 1019.4
20260507134005 24 360 9.7 22.5 0.00 0.00 0.00 35 1019.5
20260507133506 24 360 11.3 24.1 0.00 0.00 0.00 36 1019.5
20260507133017 25 360 16.1 24.1 0.00 0.00 0.00 35 1019.5
20260507132504 25 360 9.7 20.9 0.00 0.00 0.00 37 1019.5
20260507132006 25 360 9.7 20.9 0.00 0.00 0.00 37 1019.5
20260507131520 25 186 4.8 17.7 0.00 0.00 0.00 36 1019.5
20260507131009 25 360 8.0 17.7 0.00 0.00 0.00 36 1019.5
20260507130504 25 202 6.4 17.7 0.00 0.00 0.00 35 1019.5
20260507130021 26 180 6.4 17.7 0.00 0.00 0.00 34 1019.4
20260507125504 26 178 4.8 22.5 0.00 0.00 0.00 33 1019.4
20260507125004 26 215 12.9 22.5 0.00 0.00 0.00 32 1019.4
20260507124513 26 188 9.7 22.5 0.00 0.00 0.00 32 1019.4
20260507124004 27 220 11.3 22.5 0.00 0.00 0.00 31 1019.4
20260507123505 27 202 3.2 19.3 0.00 0.00 0.00 31 1019.5
20260507123017 26 154 6.4 16.1 0.00 0.00 0.00 31 1019.4
20260507122505 26 161 6.4 14.5 0.00 0.00 0.00 30 1019.4
20260507122009 26 200 4.8 16.1 0.00 0.00 0.00 32 1019.4
20260507121522 25 216 1.6 16.1 0.00 0.00 0.00 33 1019.4
20260507121008 24 161 4.8 11.3 0.00 0.00 0.00 37 1019.5
20260507120510 23 227 1.6 11.3 0.00 0.00 0.00 42 1019.5
20260507120022 23 70 6.4 12.9 0.00 0.00 0.00 41 1019.6
20260507115510 24 80 6.4 14.5 0.00 0.00 0.00 39 1019.6
20260507115004 25 84 6.4 14.5 0.00 0.00 0.00 39 1019.6
20260507114510 25 123 3.2 11.3 0.00 0.00 0.00 38 1019.6
20260507114004 25 86 4.8 12.9 0.00 0.00 0.00 37 1019.6
20260507113503 26 79 8.0 16.1 0.00 0.00 0.00 35 1019.6
20260507113017 26 67 3.2 16.1 0.00 0.00 0.00 32 1019.7
20260507112504 27 87 3.2 11.3 0.00 0.00 0.00 31 1019.7
20260507112007 27 205 1.6 9.7 0.00 0.00 0.00 30 1019.7
20260507111518 27 55 1.6 9.7 0.00 0.00 0.00 31 1019.6
20260507111006 27 113 3.2 8.0 0.00 0.00 0.00 32 1019.6
20260507110507 26 233 1.6 11.3 0.00 0.00 0.00 33 1019.6
20260507110030 26 134 1.6 12.9 0.00 0.00 0.00 34 1019.7
20260507105507 25 188 6.4 16.1 0.00 0.00 0.00 34 1019.8
20260507105007 24 169 4.8 16.1 0.00 0.00 0.00 35 1019.9
20260507104525 23 160 6.4 16.1 0.00 0.00 0.00 38 1020.0
20260507104014 22 76 0.0 11.3 0.00 0.00 0.00 47 1020.0
20260507103506 22 89 3.2 14.5 0.00 0.00 0.00 48 1020.0
20260507103012 22 66 1.6 14.5 0.00 0.00 0.00 48 1020.0
20260507102503 22 57 6.4 12.9 0.00 0.00 0.00 48 1020.0
20260507102004 22 122 3.2 14.5 0.00 0.00 0.00 50 1019.9
20260507101517 22 66 1.6 14.5 0.00 0.00 0.00 52 1020.0
20260507101004 22 113 1.6 12.9 0.00 0.00 0.00 53 1020.0
20260507100508 21 123 3.2 16.1 0.00 0.00 0.00 52 1020.0
20260507100025 21 113 4.8 16.1 0.00 0.00 0.00 52 1020.0
20260507095507 21 360 1.6 14.5 0.00 0.00 0.00 50 1020.0
20260507095007 22 80 3.2 14.5 0.00 0.00 0.00 49 1020.0
20260507094526 22 360 4.8 14.5 0.00 0.00 0.00 47 1019.9
20260507094007 22 82 4.8 12.9 0.00 0.00 0.00 45 1020.0
20260507093511 22 109 4.8 12.9 0.00 0.00 0.00 45 1020.0
20260507093036 22 159 1.6 9.7 0.00 0.00 0.00 46 1020.1
20260507092509 22 74 1.6 9.7 0.00 0.00 0.00 47 1020.1
20260507092003 22 123 1.6 8.0 0.00 0.00 0.00 48 1020.1
20260507091518 22 360 3.2 12.9 0.00 0.00 0.00 49 1020.0
20260507091006 22 360 4.8 12.9 0.00 0.00 0.00 49 1020.0
20260507090507 21 360 3.2 14.5 0.00 0.00 0.00 48 1020.2
20260507090019 21 360 4.8 14.5 0.00 0.00 0.00 49 1020.2
20260507085505 21 360 3.2 12.9 0.00 0.00 0.00 48 1020.1
20260507085006 21 360 3.2 11.3 0.00 0.00 0.00 49 1020.2
20260507084525 22 51 3.2 9.7 0.00 0.00 0.00 48 1020.3
20260507084009 22 68 3.2 9.7 0.00 0.00 0.00 48 1020.3
20260507083511 21 138 1.6 14.5 0.00 0.00 0.00 48 1020.2
20260507083026 21 91 3.2 14.5 0.00 0.00 0.00 48 1020.1
20260507082509 21 360 3.2 12.9 0.00 0.00 0.00 47 1020.1
20260507082015 21 82 3.2 11.3 0.00 0.00 0.00 48 1020.2
20260507081526 21 123 3.2 11.3 0.00 0.00 0.00 49 1020.2
20260507081008 21 360 3.2 14.5 0.00 0.00 0.00 51 1020.2
20260507080504 21 126 4.8 17.7 0.00 0.00 0.00 52 1020.2
20260507080016 20 360 3.2 17.7 0.00 0.00 0.00 52 1020.2
20260507075504 20 360 3.2 12.9 0.00 0.00 0.00 53 1020.2
20260507075005 20 360 1.6 12.9 0.00 0.00 0.00 53 1020.3
20260507074520 20 360 1.6 9.7 0.00 0.00 0.00 56 1020.3
20260507074006 20 360 3.2 16.1 0.00 0.00 0.00 56 1020.3
20260507073509 20 76 4.8 16.1 0.00 0.00 0.00 55 1020.3
20260507073028 20 360 4.8 16.1 0.00 0.00 0.00 54 1020.3
20260507072508 20 360 6.4 16.1 0.00 0.00 0.00 52 1020.2
20260507072009 20 360 4.8 14.5 0.00 0.00 0.00 51 1020.1
20260507071528 21 360 4.8 9.7 0.00 0.00 0.00 52 1020.2
20260507071009 21 128 1.6 9.7 0.00 0.00 0.00 54 1020.2
20260507070511 21 360 1.6 9.7 0.00 0.00 0.00 55 1020.2
20260507070026 21 76 1.6 9.7 0.00 0.00 0.00 54 1020.2
20260507065509 20 360 1.6 9.7 0.00 0.00 0.00 54 1020.2
20260507065009 20 360 1.6 9.7 0.00 0.00 0.00 55 1020.2
20260507064518 20 360 3.2 12.9 0.00 0.00 0.00 54 1020.2
20260507064005 20 68 4.8 12.9 0.00 0.00 0.00 52 1020.3
20260507063508 20 80 3.2 12.9 0.00 0.00 0.00 54 1020.3
20260507063036 20 58 0.0 4.8 0.00 0.00 0.00 59 1020.4
20260507062510 20 58 1.6 4.8 0.00 0.00 0.00 60 1020.3
20260507062007 20 40 0.0 4.8 0.00 0.00 0.00 61 1020.5
20260507061527 19 33 0.0 3.2 0.00 0.00 0.00 62 1020.4
20260507061009 19 60 0.0 4.8 0.00 0.00 0.00 64 1020.3
20260507060508 18 360 0.0 4.8 0.00 0.00 0.00 64 1020.3
20260507060040 18 67 1.6 4.8 0.00 0.00 0.00 65 1020.3
20260507055509 18 66 1.6 4.8 0.00 0.00 0.00 68 1020.3
20260507055017 18 59 0.0 4.8 0.00 0.00 0.00 70 1020.3
20260507054527 18 360 1.6 4.8 0.00 0.00 0.00 69 1020.3
20260507054010 18 39 1.6 4.8 0.00 0.00 0.00 69 1020.2
20260507053505 18 37 0.0 3.2 0.00 0.00 0.00 70 1020.2
20260507053021 18 360 0.0 3.2 0.00 0.00 0.00 70 1020.2
20260507052505 17 38 1.6 3.2 0.00 0.00 0.00 72 1020.1
20260507052008 17 360 0.0 3.2 0.00 0.00 0.00 73 1020.0
20260507051526 17 360 0.0 3.2 0.00 0.00 0.00 74 1019.9
20260507051003 16 360 0.0 4.8 0.00 0.00 0.00 75 1019.9
20260507050504 16 360 1.6 4.8 0.00 0.00 0.00 76 1019.8
20260507050010 16 360 0.0 3.2 0.00 0.00 0.00 77 1019.8
20260507045504 15 360 0.0 3.2 0.00 0.00 0.00 78 1019.7
20260507045004 15 344 0.0 3.2 0.00 0.00 0.00 78 1019.7
20260507044515 15 344 0.0 3.2 0.00 0.00 0.00 78 1019.8
20260507044004 15 360 0.0 4.8 0.00 0.00 0.00 78 1019.7
20260507043501 15 360 0.0 4.8 0.00 0.00 0.00 78 1019.7
20260507043005 14 360 0.0 3.2 0.00 0.00 0.00 78 1019.6
20260507042503 14 360 0.0 3.2 0.00 0.00 0.00 78 1019.6
20260507042002 14 360 0.0 3.2 0.00 0.00 0.00 78 1019.5
20260507041505 13 360 0.0 3.2 0.00 0.00 0.00 78 1019.5
20260507041004 13 360 0.0 3.2 0.00 0.00 0.00 78 1019.5
20260507040504 13 360 0.0 3.2 0.00 0.00 0.00 77 1019.4
20260507040006 13 360 0.0 4.8 0.00 0.00 0.00 77 1019.2
20260507035505 13 360 0.0 6.4 0.00 0.00 0.00 77 1019.1
20260507035005 13 360 1.6 8.0 0.00 0.00 0.00 77 1019.0
20260507034526 13 360 4.8 8.0 0.00 0.00 0.00 76 1019.0
20260507034009 13 360 3.2 6.4 0.00 0.00 0.00 76 1018.9
20260507033509 13 360 3.2 6.4 0.00 0.00 0.00 75 1018.8
20260507033016 13 360 3.2 6.4 0.00 0.00 0.00 75 1018.7
20260507032507 13 360 1.6 6.4 0.00 0.00 0.00 75 1018.6
20260507032002 13 360 0.0 8.0 0.00 0.00 0.00 74 1018.6
20260507031504 13 360 4.8 8.0 0.00 0.00 0.00 74 1018.5
20260507031003 13 360 3.2 8.0 0.00 0.00 0.00 73 1018.5
20260507030504 13 360 3.2 8.0 0.00 0.00 0.00 73 1018.5
20260507030008 13 360 3.2 8.0 0.00 0.00 0.00 72 1018.4
20260507025503 13 360 1.6 6.4 0.00 0.00 0.00 72 1018.3
20260507025004 14 360 0.0 6.4 0.00 0.00 0.00 71 1018.4
20260507024510 14 360 1.6 6.4 0.00 0.00 0.00 71 1018.3
20260507024007 14 360 1.6 6.4 0.00 0.00 0.00 71 1018.4
20260507023505 14 360 3.2 6.4 0.00 0.00 0.00 71 1018.4
20260507023016 14 360 3.2 6.4 0.00 0.00 0.00 70 1018.4
20260507022507 14 360 0.0 3.2 0.00 0.00 0.00 70 1018.3
20260507022011 14 360 0.0 3.2 0.00 0.00 0.00 70 1018.3
20260507021516 14 360 1.6 4.8 0.00 0.00 0.00 70 1018.3
20260507021007 13 360 0.0 4.8 0.00 0.00 0.00 70 1018.3
20260507020503 13 360 0.0 4.8 0.00 0.00 0.00 70 1018.2
20260507020010 13 360 0.0 1.6 0.00 0.00 0.00 69 1018.2
20260507015503 13 360 0.0 1.6 0.00 0.00 0.00 69 1018.2
20260507015004 13 360 0.0 1.6 0.00 0.00 0.00 69 1018.0
20260507014508 13 360 0.0 0.0 0.00 0.00 0.00 69 1018.0
20260507014005 13 360 0.0 0.0 0.00 0.00 0.00 69 1018.0
20260507013505 13 360 0.0 6.4 0.00 0.00 0.00 69 1018.0
20260507013018 13 360 0.0 8.0 0.00 0.00 0.00 69 1018.0
20260507012503 13 360 1.6 9.7 0.00 0.00 0.00 68 1018.0
20260507012009 13 360 3.2 9.7 0.00 0.00 0.00 68 1018.1
20260507011515 13 360 4.8 9.7 0.00 0.00 0.00 68 1018.0
20260507011007 13 360 4.8 8.0 0.00 0.00 0.00 66 1018.0
20260507010508 13 360 1.6 6.4 0.00 0.00 0.00 66 1018.0
20260507010020 13 360 3.2 6.4 0.00 0.00 0.00 65 1018.0
20260507005508 13 360 3.2 6.4 0.00 0.00 0.00 65 1018.1
20260507005004 13 360 3.2 6.4 0.00 0.00 0.00 64 1018.2
20260507004506 13 360 3.2 6.4 0.00 0.00 0.00 63 1018.1
20260507004004 13 360 1.6 6.4 0.00 0.00 0.00 63 1018.1
20260507003504 14 360 3.2 6.4 0.00 0.00 0.00 62 1018.2
20260507003010 14 360 1.6 6.4 0.00 0.00 0.00 62 1018.2
20260507002505 14 360 1.6 6.4 0.00 0.00 0.00 61 1018.2
20260507002007 14 360 1.6 3.2 0.00 0.00 0.00 61 1018.2
20260507001515 14 360 0.0 4.8 0.00 0.00 0.00 61 1018.2
20260507001012 14 360 0.0 6.4 0.00 0.00 0.00 61 1018.2
20260507000507 14 360 3.2 8.0 0.00 0.00 0.00 61 1018.2
20260507000022 14 360 3.2 8.0 0.00 0.00 0.00 61 1018.1
20260506235511 14 360 3.2 8.0 0.00 0.00 0.00 61 1018.2
20260506235008 14 360 3.2 6.4 0.00 0.00 0.00 61 1018.2
20260506234529 14 360 3.2 8.0 0.00 0.00 0.00 61 1018.2
20260506234011 14 360 1.6 8.0 0.00 0.00 0.00 61 1018.2
20260506233503 14 360 3.2 8.0 0.00 0.00 0.00 61 1018.2
20260506233006 14 360 1.6 6.4 0.00 0.00 0.00 61 1018.2
20260506232504 14 360 3.2 8.0 0.00 0.00 0.00 61 1018.3
20260506232004 14 360 3.2 8.0 0.00 0.00 0.00 61 1018.3
20260506231509 14 360 3.2 6.4 0.00 0.00 0.00 62 1018.3
20260506231006 14 360 3.2 8.0 0.00 0.00 0.00 62 1018.4
20260506230505 14 360 3.2 8.0 0.00 0.00 0.00 63 1018.4
20260506230016 14 360 3.2 8.0 0.00 0.00 0.00 63 1018.4
20260506225504 14 360 3.2 8.0 0.00 0.00 0.00 64 1018.4
20260506225008 14 360 4.8 8.0 0.00 0.00 0.00 64 1018.5
20260506224520 14 360 4.8 8.0 0.00 0.00 0.00 65 1018.5
20260506224008 15 360 1.6 8.0 0.00 0.00 0.00 65 1018.5
20260506223508 15 360 3.2 8.0 0.00 0.00 0.00 64 1018.5
20260506223024 15 360 3.2 8.0 0.00 0.00 0.00 64 1018.6